FFT1168 KATL-KRDU

Flight info

Callsign FFT1168
Flight time 0h 50m
Altitude 33000
Route GAIRY2 IRQ PYRES DMSTR2
Aircraft A21N/M-SDE3FGHIRWY/LB1

Departure

Time 2026-05-08 05:00
Airport Hartsfield Jackson Atlanta International Airport (KATL)

Arrival

Time 2026-05-08 05:50
Airport Raleigh-Durham International Airport (KRDU)
Time Latitude Longitude Altitude Speed Heading
2026-05-08 04:48 33.63885 -84.42631 1025 ft 0 kts 91°
2026-05-08 04:53 33.63885 -84.42644 1025 ft 2 kts 90°
2026-05-08 04:53 33.63885 -84.42662 1025 ft 2 kts 91°
2026-05-08 04:53 33.63886 -84.42680 1025 ft 2 kts 99°
2026-05-08 04:53 33.63889 -84.42698 1025 ft 2 kts 107°
2026-05-08 04:54 33.63894 -84.42714 1025 ft 2 kts 116°
2026-05-08 04:54 33.63902 -84.42730 1025 ft 2 kts 124°
2026-05-08 04:54 33.63906 -84.42738 1025 ft 1 kts 128°
2026-05-08 04:54 33.63908 -84.42740 1025 ft 0 kts 128°
2026-05-08 04:55 33.63907 -84.42740 1025 ft 0 kts 128°
2026-05-08 04:56 33.63864 -84.42720 1025 ft 14 kts 181°
2026-05-08 04:56 33.63758 -84.42724 1025 ft 15 kts 183°
2026-05-08 04:56 33.63659 -84.42715 1025 ft 13 kts 129°
2026-05-08 04:56 33.63655 -84.42633 1025 ft 11 kts 91°
2026-05-08 04:57 33.63654 -84.42460 1025 ft 23 kts 91°
2026-05-08 04:57 33.63654 -84.42267 1025 ft 22 kts 90°
2026-05-08 04:57 33.63656 -84.42074 1021 ft 23 kts 90°
2026-05-08 04:57 33.63657 -84.41886 1021 ft 21 kts 90°
2026-05-08 04:58 33.63659 -84.41708 1022 ft 20 kts 89°
2026-05-08 04:58 33.63655 -84.41051 1010 ft 20 kts 89°
2026-05-08 04:58 33.63600 -84.40913 1007 ft 20 kts 176°
2026-05-08 04:58 33.63479 -84.40918 1007 ft 9 kts 244°
2026-05-08 04:59 33.63470 -84.41026 1008 ft 39 kts 267°
2026-05-08 04:59 33.63470 -84.41647 1012 ft 107 kts 271°
2026-05-08 04:59 33.63474 -84.42784 1013 ft 162 kts 269°
2026-05-08 04:59 33.63461 -84.44239 1374 ft 178 kts 270°
2026-05-08 05:00 33.63437 -84.45725 1993 ft 182 kts 271°
2026-05-08 05:00 33.63386 -84.47234 2675 ft 183 kts 270°
2026-05-08 05:00 33.63236 -84.48722 3200 ft 186 kts 256°
2026-05-08 05:00 33.62627 -84.50172 3487 ft 203 kts 243°
2026-05-08 05:01 33.61856 -84.51661 3780 ft 218 kts 243°
2026-05-08 05:01 33.61053 -84.53268 4064 ft 234 kts 244°
2026-05-08 05:01 33.60200 -84.55031 4333 ft 253 kts 245°
2026-05-08 05:01 33.59317 -84.56913 4764 ft 266 kts 244°
2026-05-08 05:02 33.58077 -84.58568 5494 ft 273 kts 215°
2026-05-08 05:02 33.56296 -84.59186 6506 ft 275 kts 188°
2026-05-08 05:02 33.54374 -84.59011 7206 ft 281 kts 179°
2026-05-08 05:02 33.52414 -84.58737 7780 ft 286 kts 182°
2026-05-08 05:03 33.50429 -84.58564 8415 ft 288 kts 185°
2026-05-08 05:03 33.48425 -84.58192 9028 ft 303 kts 166°
2026-05-08 05:03 33.46649 -84.56729 9632 ft 323 kts 136°
2026-05-08 05:03 33.45587 -84.54337 10200 ft 336 kts 105°
2026-05-08 05:04 33.45378 -84.51516 10564 ft 349 kts 90°
2026-05-08 05:04 33.45455 -84.48557 10841 ft 364 kts 86°
2026-05-08 05:04 33.45559 -84.45478 11123 ft 378 kts 88°
2026-05-08 05:04 33.45611 -84.42310 11575 ft 385 kts 89°
2026-05-08 05:05 33.45615 -84.39099 12108 ft 389 kts 90°
2026-05-08 05:05 33.45598 -84.35853 12632 ft 394 kts 90°
2026-05-08 05:05 33.45664 -84.32570 13128 ft 398 kts 85°
2026-05-08 05:05 33.45889 -84.29264 13619 ft 402 kts 83°
2026-05-08 05:06 33.46158 -84.25927 14142 ft 405 kts 83°
2026-05-08 05:06 33.46438 -84.22567 14609 ft 410 kts 83°
2026-05-08 05:06 33.46719 -84.19163 15082 ft 414 kts 83°
2026-05-08 05:06 33.46997 -84.15733 15570 ft 417 kts 83°
2026-05-08 05:07 33.47271 -84.12272 16022 ft 421 kts 83°
2026-05-08 05:07 33.47548 -84.08766 16469 ft 425 kts 83°
2026-05-08 05:07 33.47825 -84.05232 16903 ft 429 kts 84°
2026-05-08 05:07 33.48105 -84.01653 17319 ft 434 kts 83°
2026-05-08 05:08 33.48381 -83.98057 17737 ft 437 kts 83°
2026-05-08 05:08 33.48664 -83.94430 18165 ft 440 kts 83°
2026-05-08 05:08 33.48944 -83.90773 18591 ft 443 kts 84°
2026-05-08 05:08 33.49226 -83.87097 18988 ft 446 kts 84°
2026-05-08 05:09 33.49509 -83.83382 19366 ft 450 kts 83°
2026-05-08 05:09 33.49790 -83.79648 19751 ft 454 kts 84°
2026-05-08 05:09 33.50080 -83.75882 20116 ft 457 kts 84°
2026-05-08 05:09 33.50365 -83.72097 20509 ft 459 kts 84°
2026-05-08 05:10 33.50652 -83.68283 20867 ft 463 kts 84°
2026-05-08 05:10 33.51404 -83.60593 21534 ft 470 kts 79°
2026-05-08 05:10 33.51933 -83.56727 21867 ft 473 kts 78°
2026-05-08 05:11 33.52484 -83.52840 22194 ft 476 kts 78°
2026-05-08 05:11 33.53039 -83.48933 22526 ft 479 kts 78°
2026-05-08 05:11 33.53593 -83.45001 22851 ft 482 kts 79°
2026-05-08 05:11 33.54150 -83.41040 23175 ft 485 kts 78°
2026-05-08 05:12 33.54699 -83.37055 23518 ft 487 kts 78°
2026-05-08 05:12 33.55249 -83.33052 23818 ft 490 kts 79°
2026-05-08 05:12 33.55805 -83.29016 24099 ft 493 kts 79°
2026-05-08 05:12 33.56363 -83.24961 24387 ft 496 kts 79°
2026-05-08 05:13 33.56917 -83.20883 24683 ft 498 kts 79°
2026-05-08 05:13 33.57474 -83.16793 24992 ft 500 kts 79°
2026-05-08 05:13 33.58036 -83.12677 25248 ft 503 kts 79°
2026-05-08 05:13 33.58596 -83.08539 25520 ft 506 kts 79°
2026-05-08 05:14 33.59159 -83.04375 25823 ft 508 kts 79°
2026-05-08 05:14 33.59722 -83.00198 26089 ft 510 kts 79°
2026-05-08 05:14 33.60284 -82.95998 26334 ft 513 kts 79°
2026-05-08 05:14 33.60848 -82.91776 26595 ft 515 kts 79°
2026-05-08 05:15 33.61417 -82.87539 26855 ft 517 kts 79°
2026-05-08 05:15 33.61988 -82.83283 27114 ft 520 kts 79°
2026-05-08 05:15 33.62557 -82.79010 27330 ft 523 kts 79°
2026-05-08 05:15 33.63125 -82.74707 27595 ft 524 kts 80°
2026-05-08 05:16 33.63693 -82.70413 27994 ft 523 kts 79°
2026-05-08 05:16 33.64254 -82.66118 28317 ft 523 kts 79°
2026-05-08 05:16 33.64825 -82.61808 28557 ft 526 kts 79°
2026-05-08 05:16 33.65395 -82.57479 28792 ft 528 kts 79°
2026-05-08 05:17 33.65961 -82.53129 29049 ft 530 kts 79°
2026-05-08 05:17 33.66529 -82.48772 29309 ft 532 kts 79°
2026-05-08 05:17 33.67099 -82.44388 29547 ft 534 kts 79°
2026-05-08 05:17 33.67670 -82.39992 29807 ft 536 kts 79°
2026-05-08 05:18 33.68244 -82.35577 30065 ft 538 kts 79°
2026-05-08 05:18 33.68817 -82.31133 30276 ft 540 kts 79°
2026-05-08 05:18 33.69390 -82.26682 30490 ft 542 kts 79°
2026-05-08 05:18 33.69963 -82.22214 30690 ft 544 kts 80°
2026-05-08 05:19 33.70591 -82.17732 30911 ft 545 kts 77°
2026-05-08 05:19 33.71444 -82.13268 31107 ft 545 kts 72°
2026-05-08 05:19 33.72489 -82.08902 31293 ft 546 kts 70°
2026-05-08 05:19 33.73600 -82.04551 31473 ft 548 kts 69°
2026-05-08 05:20 33.74737 -82.00183 31684 ft 549 kts 69°
2026-05-08 05:20 33.75868 -81.95790 31912 ft 550 kts 69°
2026-05-08 05:20 33.76991 -81.91401 32074 ft 553 kts 69°
2026-05-08 05:20 33.78107 -81.86979 32250 ft 555 kts 70°
2026-05-08 05:21 33.79227 -81.82530 32439 ft 557 kts 70°
2026-05-08 05:21 33.80333 -81.78084 32633 ft 558 kts 69°
2026-05-08 05:21 33.81450 -81.73610 32813 ft 560 kts 70°
2026-05-08 05:21 33.82566 -81.69121 32980 ft 561 kts 69°
2026-05-08 05:22 33.83694 -81.64605 33005 ft 561 kts 69°
2026-05-08 05:22 33.86235 -81.55690 33005 ft 557 kts 62°
2026-05-08 05:23 33.89645 -81.47372 33004 ft 550 kts 53°
2026-05-08 05:23 33.93613 -81.39500 33006 ft 549 kts 51°
2026-05-08 05:24 33.97605 -81.31660 33008 ft 549 kts 52°
2026-05-08 05:24 34.01561 -81.23787 33007 ft 552 kts 52°
2026-05-08 05:25 34.05508 -81.15866 33006 ft 551 kts 53°
2026-05-08 05:25 34.09460 -81.07898 33016 ft 551 kts 52°
2026-05-08 05:26 34.13436 -80.99882 33013 ft 553 kts 53°
2026-05-08 05:26 34.17395 -80.91868 33013 ft 552 kts 52°
2026-05-08 05:27 34.21337 -80.83877 33005 ft 552 kts 53°
2026-05-08 05:27 34.28858 -80.68579 33029 ft 552 kts 52°
2026-05-08 05:27 34.31890 -80.62389 32818 ft 553 kts 52°
2026-05-08 05:28 34.33951 -80.58189 32204 ft 551 kts 52°
2026-05-08 05:28 34.35907 -80.54189 31594 ft 549 kts 52°
2026-05-08 05:28 34.37824 -80.50266 30992 ft 547 kts 52°
2026-05-08 05:28 34.39749 -80.46325 30363 ft 546 kts 52°
2026-05-08 05:29 34.41659 -80.42408 29747 ft 544 kts 52°
2026-05-08 05:29 34.43282 -80.39074 29206 ft 542 kts 52°
2026-05-08 05:29 34.45229 -80.35074 28589 ft 541 kts 52°
2026-05-08 05:29 34.47271 -80.30876 27936 ft 538 kts 53°
2026-05-08 05:30 34.49088 -80.27126 27337 ft 536 kts 53°
2026-05-08 05:30 34.50941 -80.23307 26729 ft 533 kts 53°
2026-05-08 05:30 34.52812 -80.19445 26109 ft 531 kts 53°
2026-05-08 05:30 34.54670 -80.15603 25524 ft 527 kts 53°
2026-05-08 05:31 34.56503 -80.11805 25009 ft 523 kts 53°
2026-05-08 05:31 34.58319 -80.08034 24587 ft 515 kts 53°
2026-05-08 05:31 34.60115 -80.04310 24158 ft 509 kts 53°
2026-05-08 05:31 34.61867 -80.00664 23622 ft 495 kts 54°
2026-05-08 05:32 34.63586 -79.97097 22754 ft 489 kts 54°
2026-05-08 05:32 34.65282 -79.93572 21931 ft 482 kts 54°
2026-05-08 05:32 34.66953 -79.90099 21369 ft 467 kts 52°
2026-05-08 05:32 34.68861 -79.86966 21051 ft 446 kts 39°
2026-05-08 05:33 34.71120 -79.84473 21016 ft 429 kts 28°
2026-05-08 05:33 34.73519 -79.82335 21019 ft 425 kts 25°
2026-05-08 05:33 34.75949 -79.80264 21002 ft 424 kts 25°
2026-05-08 05:33 34.78381 -79.78187 21002 ft 425 kts 25°
2026-05-08 05:34 34.80787 -79.76105 20998 ft 424 kts 25°
2026-05-08 05:34 34.83186 -79.74012 20925 ft 426 kts 25°
2026-05-08 05:34 34.85594 -79.71897 20459 ft 426 kts 26°
2026-05-08 05:34 34.88006 -79.69767 20012 ft 424 kts 26°
2026-05-08 05:35 34.90400 -79.67644 19578 ft 421 kts 26°
2026-05-08 05:35 34.92759 -79.65554 19154 ft 419 kts 26°
2026-05-08 05:35 34.95114 -79.63464 18745 ft 415 kts 27°
2026-05-08 05:35 34.97456 -79.61383 18352 ft 411 kts 27°
2026-05-08 05:36 34.99758 -79.59335 17936 ft 408 kts 27°
2026-05-08 05:36 35.02041 -79.57307 17544 ft 404 kts 27°
2026-05-08 05:36 35.04321 -79.55281 17129 ft 400 kts 27°
2026-05-08 05:36 35.06557 -79.53291 16711 ft 397 kts 27°
2026-05-08 05:37 35.08780 -79.51311 16284 ft 395 kts 27°
2026-05-08 05:37 35.11083 -79.49598 15816 ft 381 kts 15°
2026-05-08 05:37 35.13556 -79.48662 15367 ft 364 kts
2026-05-08 05:37 35.16063 -79.48275 14946 ft 357 kts 356°
2026-05-08 05:38 35.18523 -79.47978 14509 ft 354 kts 356°
2026-05-08 05:38 35.20972 -79.47683 14084 ft 352 kts 357°
2026-05-08 05:38 35.23400 -79.47379 13660 ft 350 kts 357°
2026-05-08 05:38 35.25812 -79.47068 13227 ft 348 kts 358°
2026-05-08 05:39 35.28211 -79.46750 12805 ft 346 kts 358°
2026-05-08 05:39 35.30594 -79.46431 12388 ft 344 kts 358°
2026-05-08 05:39 35.32963 -79.46111 11964 ft 342 kts 358°
2026-05-08 05:39 35.35306 -79.45794 11696 ft 333 kts 359°
2026-05-08 05:40 35.37574 -79.45478 11536 ft 323 kts 360°
2026-05-08 05:40 35.39761 -79.44953 11365 ft 319 kts
2026-05-08 05:40 35.41867 -79.44111 11048 ft 317 kts 12°
2026-05-08 05:40 35.43916 -79.43168 10750 ft 314 kts 13°
2026-05-08 05:41 35.45944 -79.42216 10430 ft 310 kts 13°
2026-05-08 05:41 35.47937 -79.41234 10033 ft 313 kts 20°
2026-05-08 05:41 35.49693 -79.39601 9639 ft 322 kts 44°
2026-05-08 05:41 35.51026 -79.37395 9296 ft 322 kts 51°
2026-05-08 05:42 35.55337 -79.29586 8235 ft 312 kts 52°
2026-05-08 05:42 35.56516 -79.27427 8055 ft 302 kts 52°
2026-05-08 05:42 35.57693 -79.25300 7789 ft 300 kts 52°
2026-05-08 05:42 35.58868 -79.23193 7405 ft 300 kts 51°
2026-05-08 05:43 35.60044 -79.21094 7063 ft 296 kts 52°
2026-05-08 05:43 35.61196 -79.19035 6664 ft 291 kts 51°
2026-05-08 05:43 35.62334 -79.17002 6337 ft 286 kts 52°
2026-05-08 05:43 35.63439 -79.15022 6156 ft 276 kts 51°
2026-05-08 05:44 35.64502 -79.13118 6047 ft 264 kts 51°
2026-05-08 05:44 35.65489 -79.11257 5986 ft 260 kts 53°
2026-05-08 05:44 35.66442 -79.09335 5987 ft 264 kts 54°
2026-05-08 05:44 35.67393 -79.07396 5874 ft 264 kts 54°
2026-05-08 05:45 35.68332 -79.05471 5641 ft 261 kts 54°
2026-05-08 05:45 35.69264 -79.03567 5382 ft 259 kts 54°
2026-05-08 05:45 35.70194 -79.01689 5181 ft 256 kts 52°
2026-05-08 05:45 35.71305 -79.00011 4978 ft 250 kts 41°
2026-05-08 05:46 35.72540 -78.98526 4756 ft 246 kts 39°
2026-05-08 05:46 35.73780 -78.97074 4426 ft 246 kts 40°
2026-05-08 05:46 35.75006 -78.95601 4000 ft 247 kts 40°
2026-05-08 05:46 35.76207 -78.94123 3503 ft 242 kts 41°
2026-05-08 05:47 35.77367 -78.92679 3157 ft 235 kts 41°
2026-05-08 05:47 35.78508 -78.91258 2844 ft 231 kts 41°
2026-05-08 05:47 35.79604 -78.89894 2529 ft 217 kts 41°
2026-05-08 05:47 35.80637 -78.88612 2242 ft 205 kts 40°
2026-05-08 05:48 35.81615 -78.87400 2026 ft 191 kts 40°
2026-05-08 05:48 35.82508 -78.86292 1846 ft 174 kts 40°
2026-05-08 05:48 35.83332 -78.85274 1566 ft 161 kts 41°
2026-05-08 05:48 35.84085 -78.84344 1310 ft 146 kts 41°
2026-05-08 05:49 35.84797 -78.83468 1117 ft 144 kts 41°
2026-05-08 05:49 35.85509 -78.82589 958 ft 143 kts 42°
2026-05-08 05:49 35.86214 -78.81712 760 ft 144 kts 43°
2026-05-08 05:49 35.86917 -78.80845 572 ft 143 kts 43°
2026-05-08 05:50 35.87621 -78.79983 409 ft 139 kts 44°
2026-05-08 05:50 35.88225 -78.79240 410 ft 101 kts 45°
2026-05-08 05:50 35.88556 -78.78819 407 ft 30 kts 70°
2026-05-08 05:50 35.88508 -78.78696 399 ft 15 kts 225°
2026-05-08 05:51 35.88460 -78.78756 399 ft 13 kts 221°
2026-05-08 05:51 35.88001 -78.79317 399 ft 23 kts 224°
2026-05-08 05:51 35.87597 -78.79817 399 ft 19 kts 219°
2026-05-08 05:51 35.87475 -78.79744 399 ft 14 kts 132°
2026-05-08 05:52 35.87430 -78.79659 399 ft 7 kts 50°
2026-05-08 05:52 35.87469 -78.79637 399 ft 0 kts 17°
2026-05-08 05:52 35.87470 -78.79637 399 ft 0 kts 16°